Time,TemperatureF,DewpointF,PressureIn,WindDirection,WindDirectionDegrees,WindSpeedMPH,WindSpeedGustMPH,Humidity,HourlyPrecipIn,Conditions,Clouds,dailyrainin,SoftwareType,DateUTC
2013-05-05 00:00:00,50.7,22.7,30.21,North,0,0.0,0.0,33,0.00,,CLR,0.00,VWS V14.00,2013-05-05 04:00:00,
2013-05-05 00:15:00,50.2,22.9,30.21,North,0,0.0,0.0,34,0.00,,CLR,0.00,VWS V14.00,2013-05-05 04:15:00,
2013-05-05 00:30:00,49.8,24.0,30.21,North,0,0.0,0.0,36,0.00,,CLR,0.00,VWS V14.00,2013-05-05 04:30:00,
2013-05-05 00:45:00,50.7,24.1,30.21,North,0,0.0,0.0,35,0.00,,CLR,0.00,VWS V14.00,2013-05-05 04:45:00,
2013-05-05 01:00:00,50.7,22.0,30.21,North,0,0.0,0.0,32,0.00,,CLR,0.00,VWS V14.00,2013-05-05 05:00:00,
2013-05-05 01:15:00,50.7,22.0,30.21,North,0,0.0,0.0,32,0.00,,CLR,0.00,VWS V14.00,2013-05-05 05:15:00,
2013-05-05 01:44:00,49.8,24.0,30.21,North,0,0.0,0.0,36,0.00,,CLR,0.00,VWS V14.00,2013-05-05 05:44:00,
2013-05-05 01:59:00,50.4,24.4,30.21,North,0,0.0,0.0,36,0.00,,CLR,0.00,VWS V14.00,2013-05-05 05:59:00,
2013-05-05 02:14:00,52.0,23.1,30.21,North,0,0.0,0.0,32,0.00,,CLR,0.00,VWS V14.00,2013-05-05 06:14:00,
2013-05-05 02:29:00,51.3,23.9,30.21,North,0,0.0,0.0,34,0.00,,CLR,0.00,VWS V14.00,2013-05-05 06:29:00,
2013-05-05 02:44:00,53.4,23.6,30.21,North,0,0.0,0.0,31,0.00,,CLR,0.00,VWS V14.00,2013-05-05 06:44:00,
2013-05-05 02:59:00,53.6,21.3,30.21,North,0,0.0,0.0,28,0.00,,CLR,0.00,VWS V14.00,2013-05-05 06:59:00,
2013-05-05 03:14:00,52.9,21.5,30.21,North,0,0.0,0.0,29,0.00,,CLR,0.00,VWS V14.00,2013-05-05 07:14:00,
2013-05-05 03:29:00,51.8,20.6,30.21,North,0,0.0,0.0,29,0.00,,CLR,0.00,VWS V14.00,2013-05-05 07:29:00,
2013-05-05 03:44:00,51.8,21.4,30.21,North,0,0.0,0.0,30,0.00,,CLR,0.00,VWS V14.00,2013-05-05 07:44:00,
2013-05-05 03:59:00,51.3,21.7,30.21,North,0,0.0,0.0,31,0.00,,CLR,0.00,VWS V14.00,2013-05-05 07:59:00,
2013-05-05 04:14:00,50.5,21.0,30.21,North,0,0.0,0.0,31,0.00,,CLR,0.00,VWS V14.00,2013-05-05 08:14:00,
2013-05-05 04:29:00,48.4,19.9,30.21,North,0,0.0,0.0,32,0.00,,CLR,0.00,VWS V14.00,2013-05-05 08:29:00,
2013-05-05 04:44:00,47.1,22.8,30.21,North,0,0.0,0.0,38,0.00,,CLR,0.00,VWS V14.00,2013-05-05 08:44:00,
2013-05-05 04:59:00,46.2,23.2,30.21,North,0,0.0,0.0,40,0.00,,CLR,0.00,VWS V14.00,2013-05-05 08:59:00,
2013-05-05 05:14:00,45.9,22.3,30.21,North,0,0.0,0.0,39,0.00,,CLR,0.00,VWS V14.00,2013-05-05 09:14:00,
2013-05-05 05:30:00,44.6,22.4,30.21,North,0,0.0,0.0,41,0.00,,CLR,0.00,VWS V14.00,2013-05-05 09:30:00,
2013-05-05 05:45:00,43.7,22.1,30.21,North,0,0.0,0.0,42,0.00,,CLR,0.00,VWS V14.00,2013-05-05 09:45:00,
2013-05-05 06:00:00,42.8,23.0,30.21,North,0,0.0,0.0,45,0.00,,CLR,0.00,VWS V14.00,2013-05-05 10:00:00,
2013-05-05 06:15:00,42.6,22.8,30.21,North,0,0.0,0.0,45,0.00,,CLR,0.00,VWS V14.00,2013-05-05 10:15:00,
2013-05-05 06:30:00,42.3,23.5,30.21,North,0,0.0,0.0,47,0.00,,CLR,0.00,VWS V14.00,2013-05-05 10:30:00,
2013-05-05 06:45:00,42.8,25.0,30.21,North,0,0.0,0.0,49,0.00,,CLR,0.00,VWS V14.00,2013-05-05 10:45:00,
2013-05-05 07:00:00,44.1,26.1,30.24,North,0,0.0,0.0,49,0.00,,CLR,0.00,VWS V14.00,2013-05-05 11:00:00,
2013-05-05 07:15:00,45.5,28.4,30.24,North,0,0.0,0.0,51,0.00,,CLR,0.00,VWS V14.00,2013-05-05 11:15:00,
2013-05-05 07:30:00,47.3,29.6,30.24,North,0,0.0,0.0,50,0.00,,CLR,0.00,VWS V14.00,2013-05-05 11:30:00,
2013-05-05 07:45:00,49.1,31.8,30.24,North,0,0.0,0.0,51,0.00,,CLR,0.00,VWS V14.00,2013-05-05 11:45:00,
2013-05-05 08:00:00,50.4,30.9,30.24,North,0,0.0,0.0,47,0.00,,CLR,0.00,VWS V14.00,2013-05-05 12:00:00,
2013-05-05 08:15:00,51.8,28.3,30.24,North,0,0.0,0.0,40,0.00,,CLR,0.00,VWS V14.00,2013-05-05 12:15:00,
2013-05-05 08:30:00,53.4,27.8,30.24,North,0,0.0,0.0,37,0.00,,CLR,0.00,VWS V14.00,2013-05-05 12:30:00,
2013-05-05 08:45:00,54.9,25.6,30.24,North,0,0.0,0.0,32,0.00,,CLR,0.00,VWS V14.00,2013-05-05 12:45:00,
2013-05-05 09:00:00,55.8,23.2,30.24,North,0,0.0,0.0,28,0.00,,CLR,0.00,VWS V14.00,2013-05-05 13:00:00,
2013-05-05 09:15:00,57.4,23.7,30.24,North,0,0.0,0.0,27,0.00,,CLR,0.00,VWS V14.00,2013-05-05 13:15:00,
2013-05-05 09:30:00,58.1,22.5,30.24,North,0,0.0,0.0,25,0.00,,CLR,0.00,VWS V14.00,2013-05-05 13:30:00,
2013-05-05 09:44:00,59.0,22.3,30.21,North,0,0.0,0.0,24,0.00,,CLR,0.00,VWS V14.00,2013-05-05 13:44:00,
2013-05-05 09:59:00,60.3,23.4,30.21,North,0,0.0,0.0,24,0.00,,CLR,0.00,VWS V14.00,2013-05-05 13:59:00,
2013-05-05 10:14:00,61.3,21.1,30.21,North,0,0.0,0.0,21,0.00,,CLR,0.00,VWS V14.00,2013-05-05 14:14:00,
2013-05-05 10:30:00,62.2,19.5,30.21,North,0,0.0,0.0,19,0.00,,CLR,0.00,VWS V14.00,2013-05-05 14:30:00,
2013-05-05 11:00:00,63.3,19.1,30.21,North,0,0.0,0.0,18,0.00,,CLR,0.00,VWS V14.00,2013-05-05 15:00:00,
2013-05-05 11:14:00,64.8,20.3,30.21,North,0,0.0,0.0,18,0.00,,CLR,0.00,VWS V14.00,2013-05-05 15:14:00,
2013-05-05 11:29:00,65.7,21.0,30.21,North,0,0.0,0.0,18,0.00,,CLR,0.00,VWS V14.00,2013-05-05 15:29:00,
2013-05-05 11:44:00,66.6,20.4,30.21,North,0,0.0,0.0,17,0.00,,CLR,0.00,VWS V14.00,2013-05-05 15:44:00,
2013-05-05 11:59:00,67.8,18.5,30.21,North,0,0.0,0.0,15,0.00,,CLR,0.00,VWS V14.00,2013-05-05 15:59:00,
2013-05-05 12:14:00,68.0,21.6,30.18,North,0,0.0,0.0,17,0.00,,CLR,0.00,VWS V14.00,2013-05-05 16:14:00,
2013-05-05 12:29:00,69.4,19.8,30.18,North,0,0.0,0.0,15,0.00,,CLR,0.00,VWS V14.00,2013-05-05 16:29:00,
2013-05-05 12:44:00,69.6,20.0,30.18,North,0,0.0,0.0,15,0.00,,CLR,0.00,VWS V14.00,2013-05-05 16:44:00,
2013-05-05 12:59:00,70.9,19.4,30.18,North,0,0.0,0.0,14,0.00,,CLR,0.00,VWS V14.00,2013-05-05 16:59:00,
2013-05-05 13:14:00,70.2,18.8,30.18,North,0,0.0,0.0,14,0.00,,CLR,0.00,VWS V14.00,2013-05-05 17:14:00,
2013-05-05 13:29:00,70.7,19.2,30.18,North,0,0.0,0.0,14,0.00,,CLR,0.00,VWS V14.00,2013-05-05 17:29:00,
2013-05-05 13:44:00,70.9,19.4,30.18,North,0,0.0,0.0,14,0.00,,CLR,0.00,VWS V14.00,2013-05-05 17:44:00,
2013-05-05 13:59:00,69.3,19.7,30.15,North,0,0.0,0.0,15,0.00,,CLR,0.00,VWS V14.00,2013-05-05 17:59:00,
2013-05-05 14:14:00,73.0,21.1,30.15,North,0,0.0,0.0,14,0.00,,CLR,0.00,VWS V14.00,2013-05-05 18:14:00,
2013-05-05 14:29:00,73.8,19.9,30.15,North,0,0.0,0.0,13,0.00,,CLR,0.00,VWS V14.00,2013-05-05 18:29:00,
2013-05-05 14:44:00,73.0,21.1,30.15,North,0,0.0,0.0,14,0.00,,CLR,0.00,VWS V14.00,2013-05-05 18:44:00,
2013-05-05 15:00:00,72.7,20.8,30.15,North,0,0.0,0.0,14,0.00,,CLR,0.00,VWS V14.00,2013-05-05 19:00:00,
2013-05-05 15:14:00,73.2,21.2,30.15,North,0,0.0,0.0,14,0.00,,CLR,0.00,VWS V14.00,2013-05-05 19:14:00,
2013-05-05 15:30:00,73.8,19.9,30.12,North,0,0.0,0.0,13,0.00,,CLR,0.00,VWS V14.00,2013-05-05 19:30:00,
2013-05-05 15:45:00,74.1,20.2,30.12,North,0,0.0,0.0,13,0.00,,CLR,0.00,VWS V14.00,2013-05-05 19:45:00,
2013-05-05 16:00:00,72.3,20.5,30.12,North,0,0.0,0.0,14,0.00,,CLR,0.00,VWS V14.00,2013-05-05 20:00:00,
2013-05-05 16:15:00,75.2,21.0,30.12,North,0,0.0,0.0,13,0.00,,CLR,0.00,VWS V14.00,2013-05-05 20:15:00,
2013-05-05 16:30:00,76.1,21.7,30.12,North,0,0.0,0.0,13,0.00,,CLR,0.00,VWS V14.00,2013-05-05 20:30:00,
2013-05-05 16:45:00,74.8,20.7,30.12,North,0,0.0,0.0,13,0.00,,CLR,0.00,VWS V14.00,2013-05-05 20:45:00,
2013-05-05 17:00:00,72.1,20.4,30.12,North,0,0.0,0.0,14,0.00,,CLR,0.00,VWS V14.00,2013-05-05 21:00:00,
2013-05-05 17:15:00,72.5,20.6,30.12,North,0,0.0,0.0,14,0.00,,CLR,0.00,VWS V14.00,2013-05-05 21:15:00,
2013-05-05 17:30:00,71.4,19.8,30.12,North,0,0.0,0.0,14,0.00,,CLR,0.00,VWS V14.00,2013-05-05 21:30:00,
2013-05-05 17:45:00,72.5,20.6,30.12,North,0,0.0,0.0,14,0.00,,CLR,0.00,VWS V14.00,2013-05-05 21:45:00,
2013-05-05 18:00:00,70.5,19.1,30.12,North,0,0.0,0.0,14,0.00,,CLR,0.00,VWS V14.00,2013-05-05 22:00:00,
2013-05-05 18:15:00,70.2,18.8,30.12,North,0,0.0,0.0,14,0.00,,CLR,0.00,VWS V14.00,2013-05-05 22:15:00,
2013-05-05 18:30:00,68.9,19.4,30.12,North,0,0.0,0.0,15,0.00,,CLR,0.00,VWS V14.00,2013-05-05 22:30:00,
2013-05-05 18:45:00,68.5,19.1,30.12,North,0,0.0,0.0,15,0.00,,CLR,0.00,VWS V14.00,2013-05-05 22:45:00,
2013-05-05 19:00:00,67.3,18.1,30.12,North,0,0.0,0.0,15,0.00,,CLR,0.00,VWS V14.00,2013-05-05 23:00:00,
2013-05-05 19:15:00,65.8,16.9,30.12,North,0,0.0,0.0,15,0.00,,CLR,0.00,VWS V14.00,2013-05-05 23:15:00,
2013-05-05 19:30:00,65.1,16.4,30.12,North,0,0.0,0.0,15,0.00,,CLR,0.00,VWS V14.00,2013-05-05 23:30:00,
2013-05-05 19:45:00,64.4,15.8,30.12,North,0,0.0,0.0,15,0.00,,CLR,0.00,VWS V14.00,2013-05-05 23:45:00,
2013-05-05 20:00:00,62.8,15.9,30.12,North,0,0.0,0.0,16,0.00,,CLR,0.00,VWS V14.00,2013-05-06 00:00:00,
2013-05-05 20:15:00,60.6,15.6,30.12,North,0,0.0,0.0,17,0.00,,CLR,0.00,VWS V14.00,2013-05-06 00:15:00,
2013-05-05 20:30:00,59.7,14.9,30.15,North,0,0.0,0.0,17,0.00,,CLR,0.00,VWS V14.00,2013-05-06 00:30:00,
2013-05-05 20:44:00,59.5,14.7,30.15,North,0,0.0,0.0,17,0.00,,CLR,0.00,VWS V14.00,2013-05-06 00:44:00,
2013-05-05 20:59:00,59.9,15.0,30.15,North,0,0.0,0.0,17,0.00,,CLR,0.00,VWS V14.00,2013-05-06 00:59:00,
2013-05-05 21:14:00,57.9,13.4,30.15,North,0,0.0,0.0,17,0.00,,CLR,0.00,VWS V14.00,2013-05-06 01:14:00,
2013-05-05 21:29:00,56.7,12.4,30.15,North,0,0.0,0.0,17,0.00,,CLR,0.00,VWS V14.00,2013-05-06 01:29:00,
2013-05-05 21:44:00,55.2,12.5,30.15,North,0,0.0,0.0,18,0.00,,CLR,0.00,VWS V14.00,2013-05-06 01:44:00,
2013-05-05 21:59:00,59.2,14.4,30.18,North,0,0.0,0.0,17,0.00,,CLR,0.00,VWS V14.00,2013-05-06 01:59:00,
2013-05-05 22:14:00,59.4,14.6,30.18,North,0,0.0,0.0,17,0.00,,CLR,0.00,VWS V14.00,2013-05-06 02:14:00,
2013-05-05 22:29:00,58.6,14.0,30.18,North,0,0.0,0.0,17,0.00,,CLR,0.00,VWS V14.00,2013-05-06 02:29:00,
2013-05-05 22:44:00,58.8,14.1,30.18,North,0,0.0,0.0,17,0.00,,CLR,0.00,VWS V14.00,2013-05-06 02:44:00,
2013-05-05 22:59:00,58.6,14.0,30.18,North,0,0.0,0.0,17,0.00,,CLR,0.00,VWS V14.00,2013-05-06 02:59:00,
2013-05-05 23:14:00,57.7,13.2,30.15,North,0,0.0,0.0,17,0.00,,CLR,0.00,VWS V14.00,2013-05-06 03:14:00,
2013-05-05 23:29:00,58.1,13.5,30.15,North,0,0.0,0.0,17,0.00,,CLR,0.00,VWS V14.00,2013-05-06 03:29:00,
2013-05-05 23:44:00,57.4,12.9,30.18,North,0,0.0,0.0,17,0.00,,CLR,0.00,VWS V14.00,2013-05-06 03:44:00,
2013-05-05 23:59:00,57.2,12.8,30.15,North,0,0.0,0.0,17,0.00,,CLR,0.00,VWS V14.00,2013-05-06 03:59:00,